This is the latest recevied weather packets stored in our database for station/object HA6IFZ-10. If no packets are shown the sender has not sent any weather packets the latest 10 day(s).
| Time | Temp. | Humidity | Pressure | Rain* | Wind** | Luminosity | Snow |
|---|---|---|---|---|---|---|---|
| 1787535175 | 16.11° C | 51% | 1029 hPa | - | - | - | - |
| 1787534275 | 16.11° C | 50% | 1028.8 hPa | - | - | - | - |
| 1787533375 | 15° C | 55% | 1028.7 hPa | - | - | - | - |
| 1787532475 | 15° C | 53% | 1028.9 hPa | - | - | - | - |
| 1787531575 | 15.56° C | 51% | 1028.9 hPa | - | - | - | - |
| 1787530675 | 15.56° C | 52% | 1029 hPa | - | - | - | - |
| 1787529774 | 15.56° C | 51% | 1028.9 hPa | - | - | - | - |
| 1787528874 | 16.11° C | 49% | 1028.8 hPa | - | - | - | - |
| 1787527974 | 16.11° C | 48% | 1029 hPa | - | - | - | - |
| 1787527074 | 16.67° C | 47% | 1028.8 hPa | - | - | - | - |
| 1787525276 | 17.22° C | 46% | 1028.9 hPa | - | - | - | - |
| 1787524376 | 17.22° C | 46% | 1028.9 hPa | - | - | - | - |
| 1787523476 | 17.22° C | 45% | 1028.9 hPa | - | - | - | - |
| 1787522576 | 17.78° C | 44% | 1029 hPa | - | - | - | - |
| 1787521676 | 17.78° C | 44% | 1028.9 hPa | - | - | - | - |
| 1787520776 | 17.78° C | 43% | 1028.8 hPa | - | - | - | - |
| 1787519876 | 18.33° C | 42% | 1028.8 hPa | - | - | - | - |
| 1787518976 | 18.89° C | 42% | 1028.7 hPa | - | - | - | - |
| 1787518076 | 18.89° C | 41% | 1028.7 hPa | - | - | - | - |
| 1787517175 | 18.89° C | 41% | 1028.7 hPa | - | - | - | - |
| 1787516275 | 19.44° C | 40% | 1028.8 hPa | - | - | - | - |
| 1787515375 | 19.44° C | 40% | 1028.7 hPa | - | - | - | - |
| 1787514475 | 18.89° C | 41% | 1028.7 hPa | - | - | - | - |
| 1787513575 | 18.89° C | 41% | 1028.7 hPa | - | - | - | - |
| 1787512675 | 19.44° C | 40% | 1028.7 hPa | - | - | - | - |
* Rain since midnight (hover to see other rain measurements)
** Current wind speed in m/s (hover to see current wind gust speed)